Weather History for PHMK - December, 2013

Change the Weather History Date:

Tuesday, December 31, 2013

  Actual Average Record
Temperature  
Mean Temperature 74 °F -  
Max Temperature 78 °F 77 °F 85 °F (1976)
Min Temperature 69 °F 64 °F 56 °F (1984)
Cooling Degree Days 8    
Growing Degree Days 24 (Base 50)    
Moisture  
Dew Point 66 °F    
Average Humidity 80    
Maximum Humidity 90    
Minimum Humidity 66    
Precipitation  
Precipitation 0.01 in - - ()
Sea Level Pressure  
Sea Level Pressure 29.98 in    
Wind  
Wind Speed 9 mph (NNE)    
Max Wind Speed 17 mph    
Max Gust Speed 22 mph    
Visibility 10 miles    
Events      
Averages and records for this station are not official NWS values.
T = Trace of Precipitation, MM = Missing Value Source: NWS Daily Summary

Daily Weather History Graph

Daily Weather History Graph

Search for Another Location

Airport or City:

Trip Planner

Search our weather history database for the weather conditions in past years. The results will help you decide how hot, cold, wet, or windy it might be!

Date:

Astronomy

Dec. 31, 2013 Rise Set
Actual Time 7:05 AM HST 5:57 PM HST
Civil Twilight 6:41 AM HST 6:22 PM HST
Nautical Twilight 6:13 AM HST 6:49 PM HST
Astronomical Twilight 5:46 AM HST 7:16 PM HST
Moon 6:15 AM HST 5:40 PM HST
Length of Visible Light 11h 40m
Length of Day
10h 52m
Waning Crescent, 0% of the Moon is Illuminated
Dec 31
Waning Crescent
Jan 1
New
Jan 7
First Quarter
Jan 15
Full
Jan 23
Last Quarter

Hourly Weather History & Observations

Time (HST) Temp. Dew Point Humidity Pressure Visibility Wind Dir Wind Speed Gust Speed Precip Events Conditions
12:54 AM 70.0 °F 64.0 °F 81% 30.00 in 10.0 mi NE 10.4 mph 17.3 mph N/A   Clear
1:22 AM 69.8 °F 64.4 °F 83% 29.99 in 10.0 mi NE 9.2 mph - N/A   Partly Cloudy
1:54 AM 70.0 °F 64.0 °F 81% 29.99 in 10.0 mi NE 11.5 mph 18.4 mph N/A   Clear
2:54 AM 70.0 °F 64.0 °F 81% 29.97 in 10.0 mi NNE 10.4 mph 19.6 mph N/A   Clear
3:54 AM 70.0 °F 64.0 °F 81% 29.96 in 10.0 mi NNE 10.4 mph - N/A   Clear
4:54 AM 70.0 °F 64.9 °F 84% 29.96 in 10.0 mi NNE 8.1 mph - N/A   Clear
5:54 AM 70.0 °F 64.0 °F 81% 29.97 in 10.0 mi NNE 9.2 mph 19.6 mph N/A   Clear
6:54 AM 71.1 °F 64.0 °F 78% 29.98 in 10.0 mi NNE 9.2 mph 19.6 mph N/A   Clear
7:54 AM 72.0 °F 64.0 °F 76% 30.00 in 10.0 mi NE 9.2 mph 18.4 mph N/A   Clear
8:54 AM 73.9 °F 64.9 °F 73% 30.02 in 10.0 mi NE 12.7 mph 18.4 mph N/A   Clear
9:54 AM 75.9 °F 66.0 °F 71% 30.04 in 10.0 mi NNE 8.1 mph 18.4 mph N/A   Partly Cloudy
10:54 AM 78.1 °F 66.0 °F 66% 30.04 in 10.0 mi ENE 17.3 mph 20.7 mph N/A   Partly Cloudy
11:54 AM 77.0 °F 66.0 °F 69% 30.02 in 10.0 mi NE 12.7 mph 21.9 mph N/A   Scattered Clouds
12:54 PM 75.9 °F 66.0 °F 71% 29.99 in 10.0 mi ENE 10.4 mph 20.7 mph N/A   Scattered Clouds
1:54 PM 75.9 °F 66.9 °F 74% 29.96 in 10.0 mi NNE 10.4 mph - N/A   Scattered Clouds
2:54 PM 77.0 °F 66.9 °F 71% 29.95 in 10.0 mi NNE 8.1 mph - N/A   Clear
3:54 PM 77.0 °F 68.0 °F 74% 29.94 in 10.0 mi NE 5.8 mph - N/A   Scattered Clouds
4:04 PM 75.2 °F 68.0 °F 78% 29.93 in 10.0 mi NNE 6.9 mph - N/A   Mostly Cloudy
4:14 PM 77.0 °F 68.0 °F 74% 29.93 in 10.0 mi North 8.1 mph - N/A   Scattered Clouds
4:54 PM 75.0 °F 66.9 °F 76% 29.94 in 10.0 mi NNE 9.2 mph - N/A   Partly Cloudy
5:54 PM 73.0 °F 68.0 °F 84% 29.97 in 10.0 mi NNE 3.5 mph - N/A   Scattered Clouds
6:54 PM 72.0 °F 68.0 °F 87% 29.99 in 10.0 mi NNE 4.6 mph - N/A   Clear
7:36 PM 71.6 °F 68.0 °F 88% 29.98 in 10.0 mi NNE 5.8 mph - 0.01 in   Partly Cloudy
7:54 PM 71.1 °F 68.0 °F 90% 29.99 in 10.0 mi NNE 4.6 mph - 0.01 in   Clear
8:54 PM 70.0 °F 66.9 °F 90% 30.01 in 10.0 mi NNE 4.6 mph - N/A   Clear
9:54 PM 70.0 °F 66.9 °F 90% 30.01 in 10.0 mi NE 5.8 mph - N/A   Clear
10:54 PM 70.0 °F 66.9 °F 90% 30.01 in 10.0 mi NNE 4.6 mph - N/A   Clear
11:54 PM 71.1 °F 68.0 °F 90% 30.00 in 10.0 mi NNE 4.6 mph - N/A   Clear